Flag for Northern Mariana Islands Weather past 2 weeks in Saipan, Northern Mariana Islands

81 °F

Passing clouds.

Feels Like: 89 °F
Forecast: 77 / 83 °F
Wind: 8 mph from South

Location: Saipan International Airport

Current Time: Oct 14, 2015 at 5:12:48 AM

Latest Report: Oct 14, 2015 at 4:54 AM

Visibility: 10 mi

Pressure: 29.80 "Hg

Humidity: 94%

Dew point: 79 °F

Location of SaipanLocation

Historic Weather in Saipan — Graph


Saipan temperature yesterday

Maximum temperature yesterday: 86 °F (at 11:54 AM)
Minimum temperature yesterday: 75 °F (at 12:01 AM)
Average temperature yesterday: 81 °F

Past Weeks' High & Low Weather Summary

High89 °F (Oct 1, 9:54 AM)100% (Sep 29, 4:45 AM)30.04 "Hg (Sep 29, 4:45 AM)
Low73 °F (Oct 12, 7:54 PM)61% (Oct 4, 11:54 AM)29.57 "Hg (Oct 13, 3:47 AM)
Average82 °F84%29.84 "Hg
* Reported Sep 29 4:45 AM — Oct 14 4:02 AM, Saipan, Weather by CustomWeather, © 2015

Note: Actual official high and low records may vary slightly from our data, if they occured in-between our weather recording intervals... More about our weather records


Saipan weather history for previous 24 hours

Time TempWeatherWind HumidityBarometerVisibility
4:02 AM
Wed, Oct 14
82 °FPassing clouds.7 mph89%29.72 "Hg10 mi
3:54 AM82 °FPassing clouds.9 mph88%29.79 "Hg10 mi
3:13 AM82 °FPassing clouds.9 mph89%29.73 "Hg10 mi
3:05 AM82 °FPassing clouds.10 mph89%29.73 "Hg10 mi
2:54 AM82 °FPassing clouds.10 mph88%29.79 "Hg10 mi
1:54 AM82 °FPassing clouds.13 mph88%29.80 "Hg10 mi
12:54 AM82 °FPassing clouds.8 mph88%29.83 "Hg10 mi
11:54 PM
Tue, Oct 13
82 °FPassing clouds.10 mph88%29.84 "Hg10 mi
10:54 PM82 °FPassing clouds.9 mph91%29.84 "Hg10 mi
9:54 PM82 °FPassing clouds.9 mph88%29.85 "Hg10 mi
8:54 PM82 °FPassing clouds.12 mph88%29.83 "Hg10 mi
7:54 PM82 °FPassing clouds.12 mph88%29.80 "Hg10 mi
6:54 PM81 °FPassing clouds.9 mph88%29.78 "Hg10 mi
5:54 PM82 °FSunny.12 mph82%29.76 "Hg10 mi
4:54 PM83 °FPassing clouds.16 mph82%29.73 "Hg10 mi
3:54 PM83 °FScattered clouds.14 mph88%29.72 "Hg10 mi
2:54 PM81 °FBroken clouds.8 mph94%29.72 "Hg10 mi
1:54 PM79 °FLight rain. Broken clouds.13 mph94%29.74 "Hg9 mi
12:54 PM86 °FScattered clouds.15 mph77%29.74 "Hg10 mi
11:54 AM86 °FBroken clouds.15 mph77%29.77 "Hg10 mi
10:54 AM84 °FScattered clouds.14 mph80%29.78 "Hg10 mi
9:54 AM83 °FScattered clouds.13 mph79%29.78 "Hg10 mi
8:54 AM82 °FScattered clouds.14 mph82%29.76 "Hg10 mi
7:54 AM81 °FBroken clouds.9 mph88%29.73 "Hg10 mi
7:33 AM81 °FBroken clouds.10 mph89%29.67 "Hg10 mi
6:54 AM80 °FBroken clouds.12 mph87%29.72 "Hg10 mi
5:54 AM78 °FPassing clouds.7 mph93%29.67 "Hg10 mi
Weather by CustomWeather, © 2015

See weather overviewHow to use our weather pages